Location: Barcelona
(41.3830°N, 2.1830°E)
Time: 16:39:17
(UTC+02:00)

ISS - Pass Details

Date: 05 March 2021
Orbit: 418 x 422 km, 51.6° (Epoch: 16 April)

Event Time Altitude Azimuth Distance (km) Brightness Sun altitude
Exits shadow 06:26:06 - 319° (NW) 1,766 -1.0 -10.8°
Reaches altitude 10° 06:26:55 10° 327° (NNW) 1,500 -1.3 -10.7°
Maximum altitude 06:29:30 20° 17° (NNE) 1,030 -1.6 -10.2°
Drops below altitude 10° 06:32:05 10° 67° (ENE) 1,498 0.3 -9.7°
Sets 06:34:33 0° 85° (E) 2,360 2.4 -9.2°
